LES 2 AKM, 2529

Orbit data source: Space-Track

LES 2 AKM, 2529 is space debris in HEO originally from a launch on Thu, 06 May 1965 UTC launched from the Air Force Eastern Test Range (AFETR). Debris objects in space refer to the collection of defunct objects orbiting the Earth. Examples of debris include non-operational satellites, rocket bodies, and fragments generated from explosions, collisions, or faulty payload assembly.

Loading next visibility...
Identifier
2529, 1965-034D
Orbit
HEO
Country
Flag of USUS
Related business
Manufacturer
Thiokol/TE
Mission
Spacecraft
Bus & Motor
STAR 13, STAR 13
Mass
~127 kg wet, ~97 kg dry
Launch date (UTC)
1965-05-06 (60 years ago)
Launch vehicle
Unknown
Launch site
Air Force Eastern Test Range (AFETR)
Object type
Payload
Rocket body
Debris
Shape & HBR
Sphere + Cone, 0.5 m
Radar Cross Section
0.464 m², Medium (>0.1 m² and < 1m²)

Expand to show TLE details & history
Last TLE update: 2 days ago

TLE from 2 days ago
0 LES 2 AKM
1 02529U 65034D   25241.47211394 -.00000023  00000-0  00000-0 0  9997
2 02529  32.0828 190.9861 3959382 155.3871 230.3114  4.64839874  6942
Epoch: 2025-08-29T11:19Z
TLE epoch observation values (Epoch: 2025-08-29T11:19:50.644Z)
Latitude
Longitude
43.0924°
Altitude
13,599.973 km
Speed
3.691 km/s
True Right ascension
12h 43m 53s
True Declination
0° 00' 00"
Sunlit
Object was in daylight at epoch
Visualization orbit readout
Latitude
Unknown
Longitude
Unknown
Altitude
Unknown
Speed
Unknown
Apparent Right ascension
Unknown
Apparent Declination
Unknown
Sunlit
N/A
Visualization observer readout
Local Sidereal Time
17:29:20
Azimuth
Unknown
Elevation
Unknown
Doppler factor
Unknown
Orbital elements
Apogee altitude
14,795.461 km
Perigee altitude
2,784.276 km
Semi-major axis
15,168.005 km
Eccentricity
0.39594
Inclination
32.0828°
RAAN
190.9861°
Arg. of periapsis
155.3871°
True anomaly
204.64551°
Mean anomaly
230.3114°
Eccentric anomaly
216.74093°
Mean motion
1.16185 °/min
Orbital period
309.85 mins
BSTAR
0
Loading maneuver chart data...
Computing Atmospheric mass density...
Loading historical data...
Loading historical data...
Loading historical data...
Loading historical data...
Loading historical data...
Loading historical data...
Loading historical data...
Other satellites on launch #34 in the year 1965 (1965-05-06 UTC)

Documentation

Showing up to 5 results
|